Regional Weather Roundup
Issued by NWS Columbia, SC

Home | Current Version | Previous Version | Text Only | Print | Product List | Glossary On
Versions: 1 2 3 4 5 6 7 8 9 10 11 12 13 14 15 16 17 18 19 20 21 22 23 24 25 26 27
000
ASUS42 KCAE 231210
RWRCAE
REGIONAL WEATHER ROUNDUP
NATIONAL WEATHER SERVICE COLUMBIA SC
700 AM EST THU FEB 23 2017

NOTE: "FAIR" INDICATES FEW OR NO CLOUDS BELOW 12,000 FEET WITH NO
SIGNIFICANT WEATHER AND/OR OBSTRUCTIONS TO VISIBILITY.

NOT ALL STATIONS ARE QUALITY CONTROLLED BY THE NATIONAL
WEATHER SERVICE. USE DATA WITH CAUTION...ESPECIALLY
DEWPOINT OBSERVATIONS.

SCZ001>056-GAZ040-063>065-077-231300-
...UPSTATE SOUTH CAROLINA...

CITY           SKY/WX    TMP DP  RH WIND       PRES   REMARKS
ANDERSON       MOCLDY    54  52  93 NE6       29.92R
6HR MIN TEMP:  53; 6HR MAX TEMP:  58;

LIBERTY        CLOUDY    55  53  95 E5        29.92S
6HR MIN TEMP:  48; 6HR MAX TEMP:  56;

SPARTANBURG    CLEAR     50  48  93 CALM      29.94R FOG
CLEMSON        MOCLDY    56  52  86 CALM      29.94R
6HR MIN TEMP:  55; 6HR MAX TEMP:  59;

GREENVILLE     CLEAR     55  52  89 N3        29.94R
6HR MIN TEMP:  55; 6HR MAX TEMP:  59;

GREENWOOD      CLEAR     48  47  96 N3        29.93R FOG
6HR MIN TEMP:  48; 6HR MAX TEMP:  55;

GREER          CLEAR     53  50  89 CALM      29.93R
6HR MIN TEMP:  52; 6HR MAX TEMP:  57;

ROCK HILL      FOG       48  47  96 CALM      29.93R VSB 1/4
6HR MIN TEMP:  48; 6HR MAX TEMP:  57;

CHESTER        SUNNY     52  52 100 CALM      29.93S FOG
LAURENS        SUNNY     46  46 100 NE5       29.92R FOG


...CENTRAL SOUTH CAROLINA...

CITY           SKY/WX    TMP DP  RH WIND       PRES   REMARKS
COLUMBIA APT   PTCLDY    58  54  86 N5        29.90R
6HR MIN TEMP:  58; 6HR MAX TEMP:  64;

COLUMBIA OWENS CLEAR     57  53  86 VRB5      29.91R
6HR MIN TEMP:  57; 6HR MAX TEMP:  62;

MCENTIRE ANGB  PTCLDY    57  54  89 NE7       29.90R
6HR MIN TEMP:  55; 6HR MAX TEMP:  58;

ORANGEBURG     MOCLDY    57  54  89 N7        29.90R
6HR MIN TEMP:  57; 6HR MAX TEMP:  59;

SUMTER SHAW    MOCLDY    53  51  92 NE5       29.89R
6HR MIN TEMP:  52; 6HR MAX TEMP:  58;

AIKEN          FAIR      54  52  94 NE7       29.92S
BARNWELL       FAIR      59  57  94 NE8       29.88S
MANNING        PTSUNNY   55  48  76 MISG      29.90R
CAMDEN         FAIR      55  52  88 CALM      29.92S
LANCASTER      FOG       50  50 100 CALM      29.93R VSB 1/2
WINNSBORO      SUNNY     54  52  94 NE5       29.91S


...EASTERN AND COASTAL SOUTH CAROLINA...

CITY           SKY/WX    TMP DP  RH WIND       PRES   REMARKS
MYRTLE BEACH   MOCLDY    63  57  82 E12       29.90R
N MYRTLE BCH   PTCLDY    58  56  93 NE5       29.89R
6HR MIN TEMP:  55; 6HR MAX TEMP:  59;

CONWAY         FAIR      52  52 100 CALM      29.90R
MARION         FAIR      54  50  87 NE5       29.91R
HARTSVILLE     FAIR      52  50  93 N3        29.92R
FLORENCE       PTCLDY    55  53  93 N6        29.91R
6HR MIN TEMP:  54; 6HR MAX TEMP:  58;

DARLINGTON     MOCLDY    53  52  96 N3        29.93R
6HR MIN TEMP:  52; 6HR MAX TEMP:  57;

CHARLESTON APT MOCLDY    61  57  87 NE9       29.86R
6HR MIN TEMP:  59; 6HR MAX TEMP:  62;

MOUNT PLEASANT LGT RAIN  61  59  94 CALM      29.86S
WALTERBORO     MOSUNNY   59  55  88 N6        29.87R
BEAUFORT       PTCLDY    61  60  97 NE8       29.84R
6HR MIN TEMP:  59; 6HR MAX TEMP:  63;



...EASTERN GEORGIA...

CITY           SKY/WX    TMP DP  RH WIND       PRES   REMARKS
AUGUSTA BUSH F CLEAR     57  55  93 N6        29.87S
6HR MIN TEMP:  57; 6HR MAX TEMP:  62;

AUGUSTA DANIEL CLEAR     60  54  80 N6        29.88S
6HR MIN TEMP:  58; 6HR MAX TEMP:  64;

THOMSON          N/A     55  55 100 CALM      29.94R VSB 1
6HR MIN TEMP:  55; 6HR MAX TEMP:  61;

WASHINGTON     FAIR      55  55 100 CALM      29.90S FOG
CLAXTON        FAIR     N/A N/A N/A N6        29.84R
SYLVANIA       MOSUNNY  N/A N/A N/A NE6       29.86S
STATESBORO     PTCLDY    60  60 100 NE5       29.85R
6HR MIN TEMP:  60; 6HR MAX TEMP:  63;

SAVANNAH       MOCLDY    60  57  89 NE8       29.82R
6HR MIN TEMP:  60; 6HR MAX TEMP:  63;



...SOUTHERN NORTH CAROLINA...

CITY           SKY/WX    TMP DP  RH WIND       PRES   REMARKS
CHARLOTTE      PTCLDY    52  51  97 N5        29.94R
6HR MIN TEMP:  50; 6HR MAX TEMP:  58;

MONROE         PTCLDY    50  48  93 CALM      29.93R FOG
6HR MIN TEMP:  50; 6HR MAX TEMP:  59;

WADESBORO      FOG       46  44  93 CALM      29.93S VSB 1/2
6HR MIN TEMP:  46; 6HR MAX TEMP:  55;

ROCKINGHAM     PTSUNNY   50  50 100 CALM      29.93R FOG
6HR MIN TEMP:  50; 6HR MAX TEMP:  58;

RUTHERFORDTON  CLOUDY    52  52 100 CALM      29.95R FOG
6HR MIN TEMP:  51; 6HR MAX TEMP:  53;

ASHEVILLE      FOG       48  46  93 CALM      29.95S VSB 1/4
6HR MIN TEMP:  48; 6HR MAX TEMP:  50;


$$




USA.gov is the U.S. government's official web portal to all federal, state and local government web resources and services.